Weather in Studenoye

Russia / Oryol Oblast     52°09′53″N   37°37′30″E
temp.,
°C
wind,
m/s
gust,
m/s
humid.,
%
clouds,
%
prec.,
mm/h
press.,
hPa
HPBL,
m
1 july, fri
fri100:00+14nnw33740 0.0 101636
03:00+13nnw378394 0.0 1016116
06:00+14nnw39795 0.0 1015211
09:00+20nnw610620 0.0 1015740
12:00+21nne811540 0.3 10151997
15:00+20nne810470 0.3 10161792
18:00+18nne710550 0.0 10171661
21:00+13ne611623 0.0 1020493
2 july, sat
sat200:00+9n37790 0.0 1021146
03:00+7n38840 0.0 1021169
06:00+10nnw411771 0.0 1022328
09:00+16n710635 0.0 1022935
12:00+20nne79510 0.0 10211594
15:00+21n79470 0.0 10201851
18:00+20n69570 0.0 10191530
21:00+15nw410761 0.0 1020168
3 july, sun
sun300:00+13nw410810 0.0 1019157
03:00+13nw49760 0.0 1018148
06:00+14nw41077100 0.0 1018209
09:00+19nw51062100 0.0 1018439
12:00+24nw7105320 0.0 1016937
15:00+26nnw795799 0.0 10151726
18:00+24nnw6970100 0.1 1015575
21:00+19nw41085100 0.3 1016168
4 july, mon
mon400:00+18nw378894 0.0 1016106
03:00+16n23936 0.1 101634
06:00+17n24890 0.0 1017126
09:00+22ene33640 0.0 1017523
12:00+25ene33520 0.0 10171261
15:00+26ne334714 0.0 10172145
18:00+25e335645 0.0 1017543
21:00+21ese346362 0.0 101858
5 july, tue
tue500:00+18sse226717 0.0 101919
03:00+16ssw337836 0.0 101931
06:00+17ssw248310 0.0 1020100
09:00+23ssw33647 0.0 1019468
12:00+26s435258 0.0 10181522
15:00+27sw435099 0.0 10181936
18:00+25sw466779 0.3 1017335
21:00+20ssw36907 0.6 101796